RESURS O1

Satellite information

Favourite Embed

Satellite Type and Status

PAYLOADIN ORBIT

Key statistics

Satellite RESURS O1 at a glance.

Uptime

11362

Days in orbit

Revolutions

≈ 14.8

Per day

Orbit

SSO

Sun Synchronous Orbit

Inclination

97.7

Latest

Satellite identification and parameters

Extended collection of information and parameters for RESURS O1.

Object identification

Identified? True

Debris? False

Object name: RESURS O1

International designator: 1994-074A

Object number (NORAD): 23342

Object ID (CCSDS): 23342

Country: COMMONWEALTH OF INDEPENDENT STATES (CIS)

Current information (Y/N): Y

RCS size: LARGE

Orbital parameters

Period: 96.986 minutes

Inclination: 97.677 deg

SMA: 6992.508 km

Apoapsis: 615.326 km

Periapsis: 613.421 km

RAAN: 6.4818 deg

Eccentricy: 0.0001362

Argument of periapsis: 63.6118 deg

Mean anomaly: 296.5237 deg

Mean motion: 14.84749818 rev/day

Mean motion (dot): 0.00001308 rev/day2

B* drag term: 0.00016039 1/REarth

Two-line elements (TLE)

Creation date: Dec. 12, 2025, 7:26 a.m.

Reference frame: TEME

Reference center: EARTH

Epoch: Dec. 12, 2025, 12:27 a.m. UTC

TLE line 0: 0 RESURS O1

TLE line 1: 1 23342U 94074A 25346.01892565 .00001308 00000-0 16039-3 0 9998

TLE line 2: 2 23342 97.6770 6.4818 0001362 63.6118 296.5237 14.84749818676159

Live tracking on map

Real-time ground track for satellite RESURS O1.

In-orbit conjunctions

A list of the most updated potential collisions computed for object RESURS O1.

Target Orbit TCA Probability of collision Miss distance Type
COSMOS 2251 DEB LEO 2025-12-13 01:37:54 0.0006244566 264.0 (m) DEBRIS
FENGYUN 1C DEB SSO 2025-08-23 21:48:40 0.0001976719 994.0 (m) DEBRIS
CZ-6A DEB LEO 2025-04-23 07:51:21 0.0002520207 473.0 (m) DEBRIS
SL-14 R/B LEO 2025-02-13 19:33:01 0.0005121777 722.0 (m) ROCKET BODY
COSMOS 2251 DEB LEO 2025-01-22 00:00:48 0.0002746308 706.0 (m) DEBRIS

Associated space launch

Resurs-O1 N3 or Resurs-O1 1 is the third earth observation satellite in the Russian Resurs-O1 program.

RESURS O1 was lifted into orbit during the mission ‘Zenit-2 | Resurs-O1’, on board a Zenit-2 space rocket.

The launch took place on Nov. 4, 1994, 5:47 a.m. from 45/1.

For more information about the launch, click the button.

Launch to space Zenit-2 | Resurs-O1
Zenit-2 | Resurs-O1

Agency: N/A

Status: Launch Successful

Launch date: Nov. 4, 1994, 5:47 a.m. UTC

Rocket: Zenit-2

Launch pad: 45/1

Location: Baikonur Cosmodrome, Republic of Kazakhstan

...

Latest news about this satellite

There are no fresh news available about this satellite. Check back as we update our databases every day.


Newsletter sign-up

Weekly statistics, charts and insights to help you stay on top of the space industry.